Weather History for Buffalo, WY

Change the Weather History Date:

Tuesday, April 2, 2013

  Actual Average Record
Temperature  
Mean Temperature 45 °F 39 °F  
Max Temperature 62 °F 50 °F 73 °F (2011)
Min Temperature 28 °F 28 °F 5 °F (2002)
Degree Days  
Heating Degree Days 20 26  
Month to date heating degree days 44 52  
Since 1 July heating degree days 5928 6242  
Cooling Degree Days 0 0  
Month to date cooling degree days 0 0  
Year to date cooling degree days 0 0  
Moisture  
Dew Point 18 °F    
Average Humidity 36    
Maximum Humidity 54    
Minimum Humidity 17    
Precipitation  
Precipitation 0.00 in 0.02 in 0.06 in (2000)
Month to date precipitation 0.00 0.05  
Year to date precipitation 0.69 1.74  
Sea Level Pressure  
Sea Level Pressure 30.02 in    
Wind  
Wind Speed 9 mph (South)    
Max Wind Speed 21 mph    
Max Gust Speed 26 mph    
Visibility 10 miles    
Events      
T = Trace of Precipitation, MM = Missing Value Source: NWS Daily Summary

Daily Weather History Graph

Daily Weather History Graph

Search for Another Location

Airport:

Trip Planner

Search our weather history database for the weather conditions in past years. The results will help you decide how hot, cold, wet, or windy it might be!

Date:

Astronomy

Apr. 02, 2013 Rise Set
Actual Time 6:45 AM MDT 7:35 PM MDT
Civil Twilight 6:16 AM MDT 8:05 PM MDT
Nautical Twilight 5:41 AM MDT 8:40 PM MDT
Astronomical Twilight 5:04 AM MDT 9:17 PM MDT
Moon 1:52 AM MDT (4/2) 11:30 AM MDT (4/2)
Length of Visible Light 13h 49m
Length of Day
12h 50m
Waning Gibbous, 55% of the Moon is Illuminated
Apr 2
Waning Gibbous
Apr 2
Last Quarter
Apr 10
New
Apr 18
First Quarter
Apr 25
Full

Hourly Weather History & Observations

Time (MDT) Temp. Windchill Dew Point Humidity Pressure Visibility Wind Dir Wind Speed Gust Speed Precip Events Conditions
12:53 AM 36.0 °F 33.3 °F 18.0 °F 48% 30.09 in 10.0 mi South 3.5 mph - N/A   Clear
1:53 AM 33.1 °F 27.7 °F 18.0 °F 54% 30.08 in 10.0 mi South 5.8 mph - N/A   Clear
2:53 AM 32.0 °F 28.7 °F 17.1 °F 54% 30.08 in 10.0 mi South 3.5 mph - N/A   Clear
3:53 AM 33.1 °F 27.7 °F 17.1 °F 52% 30.05 in 10.0 mi South 5.8 mph - N/A   Clear
4:53 AM 33.1 °F 28.7 °F 17.1 °F 52% 30.05 in 10.0 mi SSE 4.6 mph - N/A   Clear
5:53 AM 35.1 °F 32.2 °F 15.1 °F 44% 30.05 in 10.0 mi SSW 3.5 mph - N/A   Clear
6:53 AM 30.0 °F 25.2 °F 15.1 °F 54% 30.09 in 10.0 mi SW 4.6 mph - N/A   Clear
7:53 AM 36.0 °F 31.1 °F 19.0 °F 50% 30.10 in 10.0 mi SSE 5.8 mph - N/A   Clear
8:53 AM 41.0 °F 35.8 °F 23.0 °F 49% 30.11 in 10.0 mi SE 8.1 mph - N/A   Clear
9:53 AM 48.9 °F - 19.0 °F 31% 30.08 in 10.0 mi SSE 13.8 mph - N/A   Clear
10:53 AM 52.0 °F - 18.0 °F 26% 30.05 in 10.0 mi SSE 13.8 mph - N/A   Clear
11:53 AM 55.0 °F - 19.0 °F 24% 30.04 in 10.0 mi SE 13.8 mph - N/A   Clear
12:53 PM 57.0 °F - 19.0 °F 23% 30.01 in 10.0 mi SSE 12.7 mph 24.2 mph N/A   Clear
1:53 PM 59.0 °F - 19.0 °F 21% 30.00 in 10.0 mi SSE 12.7 mph 23.0 mph N/A   Clear
2:53 PM 61.0 °F - 19.0 °F 20% 29.98 in 10.0 mi SSE 16.1 mph 23.0 mph N/A   Clear
3:53 PM 61.0 °F - 17.1 °F 18% 29.96 in 10.0 mi South 17.3 mph - N/A   Clear
4:53 PM 61.0 °F - 16.0 °F 17% 29.96 in 10.0 mi SE 15.0 mph 25.3 mph N/A   Clear
5:53 PM 60.1 °F - 16.0 °F 18% 29.94 in 10.0 mi SSE 15.0 mph - N/A   Clear
6:53 PM 57.9 °F - 16.0 °F 19% 29.96 in 10.0 mi SE 11.5 mph - N/A   Clear
7:53 PM 50.0 °F - 18.0 °F 28% 29.97 in 10.0 mi South 5.8 mph - N/A   Clear
8:53 PM 46.9 °F - 19.0 °F 33% 29.97 in 10.0 mi Calm Calm - N/A   Clear
9:53 PM 46.0 °F 43.1 °F 21.0 °F 37% 29.94 in 10.0 mi SSW 5.8 mph - N/A   Clear
10:53 PM 46.9 °F - 21.0 °F 36% 29.92 in 10.0 mi SSW 3.5 mph - N/A   Clear
11:53 PM 43.0 °F 40.3 °F 19.0 °F 38% 29.91 in 10.0 mi WSW 4.6 mph - N/A   Clear